Home > Weather > Kitakyushu > Past weeks

Flag for Japan Past Weather in Kitakyushu, Japan — Yesterday and Last 2 Weeks

Now
88 °F

Scattered clouds.


Feels Like: 96 °F
Forecast: 81 / 90 °F
Wind: 5 mph from North

Location: Kitakyushu Airport

Current Time: Aug 24, 2016 at 3:30:28 PM

Latest Report: Aug 24, 2016 at 3:00 PM


Visibility: N/A

Pressure: 29.65 "Hg

Humidity: 62%

Dew Point: 73 °F

Location of KitakyushuLocation

Past Weather in Kitakyushu — Graph

°F

Kitakyushu Temperature Yesterday

Maximum temperature yesterday: 91 °F (at 4:00 PM)
Minimum temperature yesterday: 79 °F (at 5:00 AM)
Average temperature yesterday: 84 °F

High & Low Weather Summary for the Past Weeks

 TemperatureHumidityPressure
High95 °F (Aug 10, 3:00 PM)84% (Aug 11, 5:00 AM)29.83 "Hg (Aug 11, 5:00 AM)
Low79 °F (Aug 11, 5:00 AM)36% (Aug 11, 4:00 PM)29.47 "Hg (Aug 16, 3:00 PM)
Average86 °F68%29.66 "Hg
* Reported Aug 9 2:00 PM — Aug 24 2:00 PM, Kitakyushu, Weather by CustomWeather, © 2016

Note: Actual official high and low records may vary slightly from our data, if they occured in-between our weather recording intervals... More about our weather records

Advertising

Kitakyushu Weather History for the Previous 24 Hours

Scroll right to see more
 ConditionsComfort  
Time TempWeatherWind HumidityBarometerVisibility
2:00 PM
Wed, Aug 24
88 °FPartly sunny.9 mph62%29.65 "HgN/A
1:00 PM88 °FPartly sunny.6 mph62%29.68 "HgN/A
12:00 PM86 °FPartly sunny.6 mph62%29.68 "HgN/A
11:00 AM86 °FPartly sunny.8 mph62%29.68 "HgN/A
10:00 AM86 °FPartly sunny.6 mph62%29.68 "HgN/A
9:00 AM84 °FPartly sunny.6 mph70%29.68 "HgN/A
8:00 AM84 °FScattered clouds.5 mph70%29.68 "HgN/A
7:00 AM81 °FScattered clouds.6 mph79%29.68 "HgN/A
6:00 AM79 °FPassing clouds.6 mph79%29.68 "HgN/A
5:00 AM79 °FPassing clouds.7 mph79%29.65 "HgN/A
4:00 AM79 °FPassing clouds.8 mph79%29.65 "HgN/A
3:00 AM79 °FPassing clouds.7 mph79%29.65 "HgN/A
2:00 AM79 °FPassing clouds.7 mph79%29.65 "HgN/A
1:00 AM81 °FPassing clouds.5 mph74%29.65 "HgN/A
12:00 AM81 °FPassing clouds.5 mph74%29.65 "HgN/A
11:00 PM
Tue, Aug 23
81 °FPassing clouds.7 mph70%29.65 "HgN/A
10:00 PM81 °FPassing clouds.9 mph70%29.68 "HgN/A
9:00 PM82 °FPassing clouds.12 mph66%29.68 "HgN/A
8:00 PM82 °FPassing clouds.12 mph66%29.65 "HgN/A
7:00 PM84 °FPassing clouds.20 mph58%29.65 "HgN/A
6:00 PM86 °FScattered clouds.16 mph59%29.62 "HgN/A
5:00 PM88 °FScattered clouds.17 mph49%29.62 "HgN/A
4:00 PM91 °FScattered clouds.15 mph49%29.62 "HgN/A
3:00 PM88 °FScattered clouds.5 mph52%29.62 "HgN/A
Weather by CustomWeather, © 2016

See weather overviewHow to use our weather pages